Weather History for Pratt, KS

Change the Weather History Date:

Tuesday, November 5, 2013

  Actual Average (KP28) Record (KP28)
Temperature  
Mean Temperature 47 °F 50 °F  
Max Temperature 59 °F 63 °F 87 °F (1924)
Min Temperature 35 °F 38 °F 17 °F (1982)
Degree Days  
Heating Degree Days 18 15  
Month to date heating degree days 69  
Since 1 July heating degree days 338  
Cooling Degree Days 0 0  
Month to date cooling degree days 0  
Year to date cooling degree days 1769  
Moisture  
Dew Point 48 °F    
Average Humidity 93    
Maximum Humidity 100    
Minimum Humidity 71    
Precipitation  
Precipitation 0.75 in 0.05 in 0.60 in (1951)
Month to date precipitation 0.27  
Year to date precipitation 25.56  
Snow  
Snow 0.00 in 0.00 in - ()
Month to date snowfall 0.0  
Since 1 July snowfall 0.0  
Since 1 September snowfall 0.0  
Snow Depth -    
Sea Level Pressure  
Sea Level Pressure 29.96 in    
Wind  
Wind Speed 13 mph (South)    
Max Wind Speed 25 mph    
Max Gust Speed 34 mph    
Visibility 7 miles    
Events Rain    
T = Trace of Precipitation, MM = Missing Value Source: NWS Daily Summary

Daily Weather History Graph

Daily Weather History Graph

Search for Another Location

Airport:

Trip Planner

Search our weather history database for the weather conditions in past years. The results will help you decide how hot, cold, wet, or windy it might be!

Date:

Astronomy

Nov. 05, 2013 Rise Set
Actual Time 7:04 AM CST 5:31 PM CST
Civil Twilight 6:37 AM CST 5:59 PM CST
Nautical Twilight 6:06 AM CST 6:30 PM CST
Astronomical Twilight 5:35 AM CST 7:01 PM CST
Moon 9:19 AM CST (11/5) 7:36 PM CST (11/5)
Length of Visible Light 11h 22m
Length of Day
10h 27m
Waxing Crescent, 7% of the Moon is Illuminated
Nov 5
Waxing Crescent
Nov 9
First Quarter
Nov 17
Full
Nov 25
Last Quarter
Dec 2
New

Hourly Weather History & Observations

Time (CST) Temp. Windchill Dew Point Humidity Pressure Visibility Wind Dir Wind Speed Gust Speed Precip Events Conditions
12:15 AM 51.8 °F - 42.8 °F 71% 30.02 in 10.0 mi ESE 4.6 mph - N/A   Overcast
12:35 AM 51.8 °F - 44.6 °F 76% 30.01 in 10.0 mi ESE 4.6 mph - N/A   Overcast
12:55 AM 51.8 °F - 44.6 °F 76% 30.01 in 10.0 mi East 3.5 mph - N/A   Overcast
1:15 AM 51.8 °F - 46.4 °F 82% 30.01 in 10.0 mi East 3.5 mph - N/A   Overcast
1:35 AM 51.8 °F - 46.4 °F 82% 30.00 in 10.0 mi East 3.5 mph - N/A   Overcast
1:55 AM 51.8 °F - 46.4 °F 82% 30.00 in 10.0 mi ESE 3.5 mph - N/A   Overcast
2:15 AM 51.8 °F - 50.0 °F 94% 29.99 in 10.0 mi ESE 3.5 mph - N/A   Overcast
2:35 AM 51.8 °F - 50.0 °F 94% 29.99 in 7.0 mi SE 6.9 mph - N/A   Overcast
2:55 AM 53.6 °F - 51.8 °F 94% 29.97 in 4.0 mi SSE 10.4 mph - N/A   Overcast
3:15 AM 53.6 °F - 51.8 °F 94% 29.97 in 1.5 mi SSE 11.5 mph - N/A   Overcast
3:35 AM 53.6 °F - 51.8 °F 94% 29.97 in 1.5 mi SSE 10.4 mph 17.3 mph N/A   Overcast
3:55 AM 53.6 °F - 51.8 °F 94% 29.97 in 1.5 mi SSE 13.8 mph 18.4 mph N/A   Overcast
4:15 AM 53.6 °F - 51.8 °F 94% 29.96 in 1.8 mi SSE 15.0 mph 20.7 mph N/A   Light Drizzle
4:35 AM 53.6 °F - 53.6 °F 100% 29.95 in 3.0 mi SSE 16.1 mph 19.6 mph N/A Rain Rain
4:55 AM 53.6 °F - 53.6 °F 100% 29.95 in 2.5 mi SSE 12.7 mph - 0.01 in Rain Rain
5:15 AM 53.6 °F - 53.6 °F 100% 29.95 in 3.0 mi SSE 17.3 mph 21.9 mph N/A   Overcast
5:35 AM 53.6 °F - 53.6 °F 100% 29.94 in 3.0 mi South 16.1 mph - 0.01 in   Light Drizzle
5:55 AM 53.6 °F - 53.6 °F 100% 29.94 in 4.0 mi South 19.6 mph 23.0 mph 0.01 in   Overcast
6:15 AM 53.6 °F - 53.6 °F 100% 29.94 in 3.0 mi South 17.3 mph 21.9 mph N/A   Overcast
6:35 AM 53.6 °F - 53.6 °F 100% 29.94 in 3.0 mi South 17.3 mph 23.0 mph N/A   Overcast
6:55 AM 53.6 °F - 53.6 °F 100% 29.94 in 3.0 mi South 16.1 mph - N/A   Overcast
7:15 AM 53.6 °F - 53.6 °F 100% 29.93 in 3.0 mi South 18.4 mph 21.9 mph N/A   Overcast
7:35 AM 53.6 °F - 53.6 °F 100% 29.93 in 3.0 mi South 15.0 mph 19.6 mph N/A   Overcast
7:55 AM 53.6 °F - 53.6 °F 100% 29.93 in 5.0 mi South 17.3 mph 23.0 mph N/A   Overcast
8:15 AM 53.6 °F - 53.6 °F 100% 29.94 in 4.0 mi South 17.3 mph 24.2 mph N/A Rain Light Rain
8:35 AM 53.6 °F - 53.6 °F 100% 29.94 in 3.0 mi South 15.0 mph 20.7 mph 0.01 in Rain Heavy Rain
8:55 AM 55.4 °F - 53.6 °F 94% 29.93 in 3.0 mi South 15.0 mph 20.7 mph 0.05 in Rain Light Rain
9:15 AM 55.4 °F - 53.6 °F 94% 29.93 in 5.0 mi South 12.7 mph 20.7 mph 0.01 in   Drizzle
9:35 AM 55.4 °F - 53.6 °F 94% 29.93 in 10.0 mi South 15.0 mph - 0.01 in Rain Rain
9:55 AM 55.4 °F - 53.6 °F 94% 29.93 in 10.0 mi South 13.8 mph 17.3 mph 0.01 in   Overcast
10:15 AM 55.4 °F - 53.6 °F 94% 29.93 in 3.0 mi South 17.3 mph 21.9 mph 0.01 in Rain Rain
10:35 AM 55.4 °F - 53.6 °F 94% 29.92 in 2.5 mi South 13.8 mph - 0.07 in Rain Rain
10:55 AM 55.4 °F - 55.4 °F 100% 29.90 in 4.0 mi SSE 19.6 mph 24.2 mph 0.12 in Rain Rain
11:15 AM 55.4 °F - 55.4 °F 100% 29.87 in 3.0 mi SSE 19.6 mph 31.1 mph 0.03 in Rain Light Rain
11:35 AM 55.4 °F - 55.4 °F 100% 29.88 in 10.0 mi South 18.4 mph 24.2 mph 0.04 in Rain Light Rain
11:55 AM 55.4 °F - 55.4 °F 100% 29.87 in 5.0 mi South 23.0 mph 28.8 mph 0.06 in Rain Light Rain
12:15 PM 55.4 °F - 55.4 °F 100% 29.86 in 2.5 mi South 23.0 mph 33.4 mph 0.03 in Rain Rain
12:35 PM 55.4 °F - 55.4 °F 100% 29.89 in 1.5 mi South 11.5 mph - 0.16 in Rain Heavy Rain
12:55 PM 55.4 °F - 55.4 °F 100% 29.89 in 5.0 mi SSW 8.1 mph - 0.25 in Rain Light Rain
1:15 PM 57.2 °F - 55.4 °F 94% 29.86 in 7.0 mi South 10.4 mph - 0.01 in Rain Light Rain
1:35 PM 59.0 °F - 57.2 °F 94% 29.85 in 10.0 mi SSW 12.7 mph - 0.01 in   Overcast
1:55 PM 59.0 °F - 57.2 °F 94% 29.83 in 10.0 mi South 12.7 mph - 0.01 in Rain Light Rain
2:15 PM 59.0 °F - 57.2 °F 94% 29.84 in 10.0 mi SSW 16.1 mph - N/A   Overcast
2:35 PM 59.0 °F - 57.2 °F 94% 29.83 in 10.0 mi SSW 15.0 mph - N/A   Overcast
2:55 PM 59.0 °F - 57.2 °F 94% 29.83 in 10.0 mi SW 10.4 mph - N/A Rain Light Rain
3:15 PM 59.0 °F - 57.2 °F 94% 29.84 in 10.0 mi SW 15.0 mph - N/A   Overcast
3:35 PM 59.0 °F - 57.2 °F 94% 29.85 in 10.0 mi SW 16.1 mph - N/A   Overcast
3:55 PM 53.6 °F - 48.2 °F 82% 29.88 in 10.0 mi NW 25.3 mph 34.5 mph N/A   Overcast
4:15 PM 48.2 °F - 46.4 °F 93% 29.90 in 7.0 mi NW 23.0 mph 29.9 mph 0.01 in Rain Rain
4:35 PM 46.4 °F 38.7 °F 44.6 °F 93% 29.92 in 2.0 mi NW 20.7 mph - 0.15 in Rain Rain
4:55 PM 46.4 °F 39.2 °F 44.6 °F 93% 29.93 in 1.8 mi NW 18.4 mph 27.6 mph 0.23 in Rain Light Rain
5:15 PM 46.4 °F 37.9 °F 44.6 °F 93% 29.94 in 7.0 mi NW 25.3 mph 33.4 mph N/A Rain Rain
5:35 PM 44.6 °F 36.1 °F 42.8 °F 93% 29.95 in 10.0 mi NW 21.9 mph 31.1 mph N/A Rain Light Rain
5:55 PM 42.8 °F 34.0 °F 41.0 °F 93% 29.97 in 10.0 mi NNW 20.7 mph 26.5 mph N/A   Overcast
6:15 PM 42.8 °F 33.8 °F 39.2 °F 87% 29.98 in 10.0 mi NNW 21.9 mph 28.8 mph N/A   Overcast
6:35 PM 42.8 °F 33.8 °F 39.2 °F 87% 29.98 in 10.0 mi NNW 21.9 mph 26.5 mph N/A   Overcast
6:55 PM 41.0 °F 31.9 °F 39.2 °F 93% 29.99 in 10.0 mi NNW 19.6 mph 28.8 mph N/A   Overcast
7:15 PM 41.0 °F 31.4 °F 37.4 °F 87% 29.99 in 10.0 mi NNW 21.9 mph 31.1 mph N/A   Overcast
7:35 PM 41.0 °F 30.9 °F 37.4 °F 87% 29.99 in 10.0 mi NNW 24.2 mph 33.4 mph N/A   Overcast
7:55 PM 41.0 °F 31.4 °F 37.4 °F 87% 30.01 in 10.0 mi NNW 21.9 mph 28.8 mph N/A   Overcast
8:15 PM 39.2 °F 28.7 °F 37.4 °F 93% 30.02 in 10.0 mi NNW 23.0 mph 33.4 mph N/A   Overcast
8:35 PM 39.2 °F 30.5 °F 37.4 °F 93% 30.04 in 10.0 mi NNW 16.1 mph 26.5 mph N/A   Overcast
8:55 PM 37.4 °F 27.5 °F 35.6 °F 93% 30.05 in 10.0 mi NNW 18.4 mph 28.8 mph N/A   Overcast
9:15 PM 37.4 °F 26.9 °F 35.6 °F 93% 30.06 in 10.0 mi North 20.7 mph 31.1 mph N/A   Overcast
9:35 PM 37.4 °F 26.1 °F 35.6 °F 93% 30.08 in 10.0 mi NNW 24.2 mph 28.8 mph N/A   Overcast
9:55 PM 37.4 °F 26.4 °F 35.6 °F 93% 30.09 in 10.0 mi North 23.0 mph 32.2 mph N/A   Overcast
10:15 PM 37.4 °F 25.9 °F 33.8 °F 87% 30.09 in 10.0 mi NNW 25.3 mph 33.4 mph N/A   Overcast
10:35 PM 35.6 °F 24.0 °F 33.8 °F 93% 30.10 in 10.0 mi North 23.0 mph 31.1 mph N/A   Overcast
10:55 PM 35.6 °F 23.4 °F 33.8 °F 93% 30.10 in 10.0 mi North 25.3 mph 32.2 mph N/A   Overcast
11:15 PM 35.6 °F 23.7 °F 33.8 °F 93% 30.12 in 10.0 mi North 24.2 mph 32.2 mph N/A   Overcast
11:35 PM 35.6 °F 24.0 °F 33.8 °F 93% 30.12 in 10.0 mi North 23.0 mph 29.9 mph N/A   Overcast
11:55 PM 35.6 °F 25.2 °F 33.8 °F 93% 30.12 in 10.0 mi North 18.4 mph 24.2 mph N/A   Overcast